Weather Roundup
Issued by NWS Springfield, MO

Home | Current Version | Previous Version | Graphics & Text | Print | Product List | Glossary On
Versions: 1 2 3 4 5 6 7 8 9 10 11 12 13 14 15 16 17 18 19 20 21 22 23 24 25 26 27 28 29 30 31 32 33 34 35 36 37 38 39 40 41 42 43 44 45 46 47 48 49 50
000
NZUS99 KSGF 211507
HRRSGF

HOURLY WEATHER
NATIONAL WEATHER SERVICE SPRINGFIELD MO
1000 AM CDT THU JUN 21 2018

......SGF CWA......

CITY           SKY/WX    TMP DP  RH WIND       PRES   REMARKS
SPRINGFIELD    MOSUNNY   71  60  68 NW15G23   29.86F
JOPLIN         MOSUNNY   73  60  63 NW13G22   29.90S
WEST PLAINS    CLOUDY    75  68  78 W8        29.85S
ROLLA          MOSUNNY   72  67  84 W10       29.81S
OSAGE BEACH    CLOUDY    72  63  73 W7        29.82S
BRANSON        MOSUNNY   77  68  73 W7        29.87S

......SURROUNDING SGF CWA......

CITY           SKY/WX    TMP DP  RH WIND       PRES   REMARKS
CHANUTE        SUNNY     74  59  59 NW14      29.89F
PARSONS        SUNNY     75  60  59 W13G18    29.91F
COFFEYVILLE    SUNNY     75  59  57 NW10G21   29.91S
EMPORIA        SUNNY     73  56  54 W16G26    29.88F
GROVE OK       SUNNY     73  61  64 W8        29.92S
ROGERS AR      MOSUNNY   72  63  73 NW13      29.91S
SILOAM SPRINGS MOSUNNY   73  62  68 NW15G21   29.93R
HARRISON AR    MOSUNNY   78  68  71 W14G21    29.86F
NEAR YELLVILLE CLOUDY    77  70  79 SW12      29.84F

......KANSAS AND MISSOURI......

CITY           SKY/WX    TMP DP  RH WIND       PRES   REMARKS
KANSAS CTY INT LGT RAIN  64  60  87 W9        29.79F
DOWNTOWN KC    PTSUNNY   70  57  63 W14G25    29.78F
COLUMBIA       MOSUNNY   73  62  68 W12       29.78F
SEDALIA        CLOUDY    71  61  70 W12       29.80F
ST JOSEPH      LGT RAIN  64  62  93 W14       29.75F FOG
ST LOUIS       PTSUNNY   77  69  76 W13       29.77S
SPIRIT OF STL  CLOUDY    75  69  81 SW7       29.76S
KIRKSVILLE     CLOUDY    66  61  84 W9        29.75S
WICHITA        MOSUNNY   78  56  46 NW18      29.94F
TOPEKA         PTSUNNY   69  60  73 W13G23    29.81F
OLATHE         MOSUNNY   70  58  65 W12G23    29.80F

......TENNESSEE......

CITY           SKY/WX    TMP DP  RH WIND       PRES   REMARKS
MEMPHIS        PTSUNNY   78  74  87 W13G20    29.85F
NASHVILLE      LGT RAIN  74  71  91 S7        29.87F

......ARKANSAS.......

CITY           SKY/WX    TMP DP  RH WIND       PRES   REMARKS
FAYETTEVILLE   PTSUNNY   76  67  73 NW13      29.90S
FT SMITH       PTSUNNY   78  72  81 W13       29.89F
LITTLE ROCK    MOSUNNY   81  74  79 W7        29.86F

......OKLAHOMA.......

CITY           SKY/WX    TMP DP  RH WIND       PRES   REMARKS
TULSA          MOSUNNY   78  60  53 NW14G23   29.93S
PONCA CITY     SUNNY     76  56  49 NW10G16   29.95F
MCALESTER      MOSUNNY   77  68  73 N8        29.94F
OKLAHOMA CITY  PTSUNNY   77  55  46 N13       29.99F

......IOWA............

CITY           SKY/WX    TMP DP  RH WIND       PRES   REMARKS
DES MOINES     CLOUDY    65  61  87 S5        29.70S
QUAD CITIES    CLOUDY    74  69  85 E9        29.73S

......ILLINOIS........

CITY           SKY/WX    TMP DP  RH WIND       PRES   REMARKS
QUINCY         LGT RAIN  73  67  81 SW7       29.72F
CHICAGO        RAIN      66  64  93 NE14      29.78F FOG





USA.gov is the U.S. government's official web portal to all federal, state and local government web resources and services.